| time (UTC) | temp F | wind direction | speed knots | gust knots | rain 1hr in | rain 24hr in | rain mn in | humidity % | barometer mb |
| 20260510180054 | 69 | 45 | 5.2 | 12.2 | 0.00 | 0.00 | 0.00 | 36 | 1019.9 |
| 20260510174556 | 69 | 330 | 6.1 | 12.2 | 0.00 | 0.00 | 0.00 | 37 | 1019.8 |
| 20260510173053 | 69 | 26 | 6.1 | 13.9 | 0.00 | 0.00 | 0.00 | 38 | 1019.8 |
| 20260510171554 | 68 | 11 | 7.8 | 13.9 | 0.00 | 0.00 | 0.00 | 37 | 1019.7 |
| 20260510170051 | 68 | 338 | 7.0 | 14.8 | 0.00 | 0.00 | 0.00 | 39 | 1019.8 |
| 20260510164552 | 67 | 5 | 5.2 | 13.9 | 0.00 | 0.00 | 0.00 | 38 | 1019.8 |
| 20260510163052 | 67 | 9 | 7.0 | 15.6 | 0.00 | 0.00 | 0.00 | 41 | 1019.6 |
| 20260510161553 | 64 | 355 | 5.2 | 12.2 | 0.00 | 0.00 | 0.00 | 45 | 1019.6 |
| 20260510160125 | 64 | 328 | 7.8 | 13.9 | 0.00 | 0.00 | 0.00 | 46 | 1019.3 |
| 20260510154600 | 63 | 27 | 6.1 | 15.6 | 0.00 | 0.00 | 0.00 | 48 | 1019.3 |
| 20260510153048 | 63 | 28 | 7.8 | 13.0 | 0.00 | 0.00 | 0.00 | 47 | 1019.6 |
| 20260510151552 | 62 | 19 | 6.1 | 12.2 | 0.00 | 0.00 | 0.00 | 48 | 1019.7 |
| 20260510150052 | 63 | 337 | 4.3 | 11.3 | 0.00 | 0.00 | 0.00 | 50 | 1019.7 |
| 20260510144550 | 61 | 40 | 5.2 | 13.9 | 0.00 | 0.00 | 0.00 | 54 | 1019.6 |
| 20260510143049 | 61 | 19 | 8.7 | 13.0 | 0.00 | 0.00 | 0.00 | 55 | 1019.6 |
| 20260510141551 | 61 | 61 | 5.2 | 10.4 | 0.00 | 0.00 | 0.00 | 55 | 1019.2 |
| 20260510140055 | 61 | 30 | 5.2 | 13.9 | 0.00 | 0.00 | 0.00 | 56 | 1018.8 |
| 20260510134552 | 61 | 30 | 4.3 | 11.3 | 0.00 | 0.00 | 0.00 | 58 | 1018.3 |
| 20260510133050 | 60 | 28 | 7.0 | 13.0 | 0.00 | 0.00 | 0.00 | 62 | 1018.5 |
| 20260510131552 | 60 | 76 | 6.1 | 13.0 | 0.00 | 0.00 | 0.00 | 67 | 1018.2 |
| 20260510130052 | 59 | 30 | 7.0 | 13.0 | 0.00 | 0.00 | 0.00 | 70 | 1017.9 |
| 20260510124547 | 58 | 58 | 4.3 | 13.0 | 0.00 | 0.00 | 0.00 | 75 | 1017.7 |
| 20260510123048 | 58 | 5 | 4.3 | 8.7 | 0.00 | 0.00 | 0.00 | 79 | 1017.6 |
| 20260510121551 | 58 | 48 | 4.3 | 8.7 | 0.00 | 0.00 | 0.00 | 82 | 1017.6 |
| 20260510120049 | 58 | 19 | 5.2 | 9.6 | 0.00 | 0.00 | 0.00 | 82 | 1017.1 |
| 20260510114554 | 58 | 344 | 4.3 | 8.7 | 0.00 | 0.00 | 0.00 | 82 | 1016.6 |
| 20260510113049 | 58 | 5 | 3.5 | 8.7 | 0.00 | 0.00 | 0.00 | 82 | 1016.5 |
| 20260510111607 | 58 | 36 | 5.2 | 9.6 | 0.00 | 0.00 | 0.00 | 82 | 1016.2 |
| 20260510110051 | 58 | 14 | 5.2 | 10.4 | 0.00 | 0.00 | 0.00 | 83 | 1016.4 |
| 20260510104553 | 58 | 352 | 3.5 | 5.2 | 0.00 | 0.00 | 0.00 | 84 | 1016.3 |
| 20260510103053 | 58 | 17 | 2.6 | 4.3 | 0.00 | 0.00 | 0.00 | 83 | 1015.9 |
| 20260510101552 | 58 | 59 | 0.9 | 3.5 | 0.00 | 0.00 | 0.00 | 82 | 1015.6 |
| 20260510100057 | 59 | 32 | 1.7 | 4.3 | 0.00 | 0.00 | 0.00 | 82 | 1015.5 |
| 20260510094555 | 59 | 344 | 1.7 | 4.3 | 0.00 | 0.00 | 0.00 | 81 | 1015.2 |
| 20260510093109 | 59 | 42 | 0.9 | 3.5 | 0.00 | 0.00 | 0.00 | 81 | 1015.0 |
| 20260510091553 | 60 | 55 | 0.9 | 3.5 | 0.00 | 0.00 | 0.00 | 80 | 1014.9 |
| 20260510090107 | 60 | 73 | 1.7 | 4.3 | 0.00 | 0.00 | 0.00 | 79 | 1014.8 |
| 20260510084554 | 60 | 30 | 1.7 | 3.5 | 0.00 | 0.01 | 0.00 | 77 | 1014.4 |
| 20260510083109 | 61 | 13 | 0.9 | 3.5 | 0.00 | 0.01 | 0.00 | 75 | 1014.3 |
| 20260510081608 | 61 | 13 | 0.9 | 3.5 | 0.00 | 0.01 | 0.00 | 74 | 1014.2 |
| 20260510080055 | 62 | 11 | 2.6 | 5.2 | 0.00 | 0.01 | 0.00 | 72 | 1014.0 |
| 20260510074549 | 62 | 59 | 0.9 | 3.5 | 0.00 | 0.01 | 0.00 | 71 | 1013.9 |
| 20260510073053 | 63 | 28 | 0.9 | 4.3 | 0.00 | 0.01 | 0.00 | 70 | 1013.9 |
| 20260510071552 | 63 | 344 | 1.7 | 3.5 | 0.00 | 0.01 | 0.00 | 68 | 1014.2 |
| 20260510070057 | 64 | 163 | 0.9 | 3.5 | 0.00 | 0.01 | 0.00 | 66 | 1013.9 |
| 20260510064601 | 64 | 0 | 0.0 | 0.0 | 0.00 | 0.01 | 0.00 | 64 | 1013.7 |
| 20260510063052 | 64 | 0 | 0.0 | 0.9 | 0.00 | 0.01 | 0.00 | 63 | 1013.7 |
| 20260510061556 | 64 | 0 | 0.0 | 2.6 | 0.00 | 0.01 | 0.00 | 63 | 1013.7 |
| 20260510060052 | 64 | 0 | 0.0 | 3.5 | 0.00 | 0.01 | 0.00 | 63 | 1013.5 |
| 20260510054552 | 65 | 0 | 0.0 | 0.0 | 0.00 | 0.01 | 0.00 | 62 | 1013.7 |
| 20260510053050 | 65 | 279 | 0.0 | 1.7 | 0.00 | 0.01 | 0.00 | 60 | 1013.7 |
| 20260510051549 | 66 | 0 | 0.0 | 2.6 | 0.00 | 0.01 | 0.00 | 59 | 1013.7 |
| 20260510050056 | 66 | 292 | 0.9 | 2.6 | 0.00 | 0.01 | 0.00 | 58 | 1013.4 |
| 20260510044628 | 67 | 0 | 0.0 | 1.7 | 0.00 | 0.01 | 0.01 | 57 | 1013.2 |
| 20260510043054 | 67 | 295 | 1.7 | 6.1 | 0.00 | 0.01 | 0.01 | 56 | 1013.4 |
| 20260510041548 | 67 | 315 | 3.5 | 10.4 | 0.00 | 0.01 | 0.01 | 54 | 1013.1 |
| 20260510040053 | 68 | 279 | 0.9 | 4.3 | 0.00 | 0.01 | 0.01 | 53 | 1012.3 |
| 20260510034551 | 68 | 179 | 2.6 | 5.2 | 0.00 | 0.01 | 0.01 | 51 | 1012.2 |
| 20260510033051 | 69 | 155 | 1.7 | 4.3 | 0.00 | 0.01 | 0.01 | 50 | 1012.1 |
| 20260510031552 | 69 | 175 | 2.6 | 4.3 | 0.00 | 0.01 | 0.01 | 49 | 1012.0 |
| 20260510030050 | 70 | 165 | 1.7 | 4.3 | 0.00 | 0.01 | 0.01 | 49 | 1011.9 |
| 20260510024549 | 71 | 173 | 1.7 | 4.3 | 0.00 | 0.18 | 0.01 | 49 | 1011.7 |
| 20260510023053 | 71 | 186 | 1.7 | 4.3 | 0.00 | 0.18 | 0.01 | 47 | 1011.4 |
| 20260510021550 | 72 | 155 | 1.7 | 4.3 | 0.00 | 0.18 | 0.01 | 46 | 1011.1 |
| 20260510020051 | 73 | 181 | 1.7 | 4.3 | 0.00 | 0.18 | 0.01 | 44 | 1010.9 |
| 20260510014554 | 74 | 149 | 0.9 | 4.3 | 0.00 | 0.18 | 0.01 | 43 | 1010.7 |
| 20260510013052 | 74 | 166 | 0.9 | 5.2 | 0.00 | 0.18 | 0.01 | 41 | 1010.3 |
| 20260510011556 | 75 | 172 | 1.7 | 4.3 | 0.00 | 0.18 | 0.01 | 41 | 1010.2 |
| 20260510010114 | 76 | 174 | 2.6 | 5.2 | 0.00 | 0.18 | 0.01 | 41 | 1010.0 |
| 20260510004554 | 76 | 180 | 2.6 | 4.3 | 0.00 | 0.18 | 0.01 | 40 | 1009.9 |
| 20260510003051 | 77 | 219 | 2.6 | 4.3 | 0.00 | 0.18 | 0.01 | 39 | 1009.9 |
| 20260510001558 | 78 | 198 | 2.6 | 6.1 | 0.00 | 0.18 | 0.01 | 38 | 1009.8 |
| 20260510000052 | 78 | 225 | 2.6 | 6.1 | 0.00 | 0.18 | 0.01 | 36 | 1009.9 |
| 20260509234611 | 79 | 244 | 3.5 | 7.0 | 0.00 | 0.18 | 0.01 | 34 | 1009.8 |
| 20260509233051 | 80 | 259 | 4.3 | 7.8 | 0.00 | 0.18 | 0.01 | 33 | 1009.7 |
| 20260509231551 | 80 | 252 | 5.2 | 8.7 | 0.00 | 0.18 | 0.01 | 31 | 1009.7 |
| 20260509230051 | 81 | 223 | 4.3 | 7.8 | 0.00 | 0.18 | 0.01 | 32 | 1009.6 |
| 20260509224550 | 80 | 244 | 5.2 | 8.7 | 0.00 | 0.18 | 0.01 | 31 | 1009.7 |
| 20260509223056 | 81 | 235 | 5.2 | 10.4 | 0.00 | 0.18 | 0.01 | 30 | 1009.7 |
| 20260509221551 | 81 | 249 | 4.3 | 10.4 | 0.00 | 0.18 | 0.01 | 30 | 1009.7 |
| 20260509214551 | 82 | 346 | 6.1 | 10.4 | 0.00 | 0.18 | 0.01 | 30 | 1009.6 |
| 20260509213053 | 82 | 228 | 3.5 | 7.8 | 0.00 | 0.18 | 0.01 | 30 | 1009.6 |
| 20260509211556 | 82 | 257 | 2.6 | 11.3 | 0.00 | 0.18 | 0.01 | 30 | 1009.7 |
| 20260509210053 | 81 | 235 | 7.8 | 14.8 | 0.00 | 0.18 | 0.01 | 30 | 1009.9 |
| 20260509204550 | 82 | 245 | 5.2 | 10.4 | 0.00 | 0.18 | 0.01 | 31 | 1010.0 |
| 20260509203124 | 82 | 317 | 3.5 | 11.3 | 0.00 | 0.18 | 0.01 | 32 | 1010.3 |
| 20260509201603 | 81 | 242 | 7.8 | 13.0 | 0.00 | 0.18 | 0.01 | 30 | 1010.4 |
| 20260509200101 | 81 | 238 | 8.7 | 13.9 | 0.00 | 0.18 | 0.01 | 31 | 1010.5 |
| 20260509194549 | 81 | 238 | 7.0 | 14.8 | 0.00 | 0.18 | 0.01 | 31 | 1010.5 |
| 20260509193054 | 81 | 239 | 6.1 | 14.8 | 0.00 | 0.18 | 0.01 | 31 | 1010.6 |
| 20260509191607 | 81 | 269 | 7.8 | 12.2 | 0.00 | 0.18 | 0.01 | 31 | 1010.4 |
| 20260509190047 | 80 | 250 | 7.0 | 13.0 | 0.00 | 0.18 | 0.01 | 30 | 1010.6 |
| 20260509184550 | 80 | 241 | 7.0 | 14.8 | 0.00 | 0.18 | 0.01 | 33 | 1010.6 |
| 20260509183053 | 80 | 236 | 5.2 | 13.9 | 0.00 | 0.18 | 0.01 | 36 | 1010.7 |
| 20260509181558 | 80 | 243 | 5.2 | 14.8 | 0.00 | 0.18 | 0.01 | 36 | 1010.8 |